Miscellaneous Local Product
Issued by NWS North Platte, NE

Home | Current Version | Previous Version | Text Only | Print | Product List | Glossary On
Versions: 1 2 3 4 5 6 7 8 9 10 11 12 13 14 15 16 17 18 19 20 21 22 23 24 25 26 27 28 29 30 31 32 33 34 35 36 37 38 39 40 41 42 43 44 45 46 47 48 49 50
000
AXUS43 KLBF 221010
MISLBF


WESTERN AND NORTH CENTRAL NEBRASKA HOURLY WEATHER ROUNDUP
NATIONAL WEATHER SERVICE NORTH PLATTE NE
500 AM CDT THU JUN 22 2017

NOTE: "FAIR" INDICATES FEW OR NO CLOUDS BELOW 12,000 FEET WITH NO
SIGNIFICANT WEATHER AND/OR OBSTRUCTIONS TO VISIBILITY.

NOTE: STATIONS NOT REPORTING VARIABLES SUCH AS SKY/WEATHER OR
PRESSURE ARE PROVIDED BY RAWS AND APRS NETWORKS AND ARE NOT UNDER
NATIONAL WEATHER SERVICE QUALITY CONTROL.

...OBSERVATIONS IN AND NEAR THE EASTERN PANHANDLE OF NEBRASKA...

CITY           SKY/WX    TMP DP  RH WIND       PRES   REMARKS
PINE RIDGE     CLOUDY    62  56  80 E13       29.69F
GORDON         FAIR      63  56  80 NE10      29.70F
CHADRON        CLOUDY    61  52  72 NE7       29.72R
ALLIANCE       CLEAR     63  46  54 W3        29.70S
SIDNEY         CLOUDY    62  46  55 S9        29.80S
CRESCENT LAKE    N/A     71  49  45 SW6         N/A
$$

...OBSERVATIONS IN NORTHERN NEBRASKA AND FAR SOUTHERN SOUTH DAKOTA...

CITY           SKY/WX    TMP DP  RH WIND       PRES   REMARKS
WINNER         FAIR      68  54  60 NE12      29.68R
VALENTINE      CLEAR     68  59  73 NE10      29.67F
THEDFORD       CLEAR     74  60  61 S13       29.66S
AINSWORTH      CLEAR     67  65  94 CALM      29.66F
O`NEILL        CLEAR     70  67  91 W6        29.63F
ORD            CLEAR     75  55  49 SW13      29.62F
BROKEN BOW     CLEAR     75  58  55 SW10      29.67F
HALSEY           N/A     75  62  63 S10G20      N/A
BUTTE            N/A     67  65  92 N12         N/A
CHAMBERS         N/A     72  65  80 CALM        N/A
EWING            N/A     70  66  88 SW3         N/A
$$

...OBSERVATIONS IN SOUTHWEST NEBRASKA AND FAR NORTHEAST COLORADO...

CITY           SKY/WX    TMP DP  RH WIND       PRES   REMARKS
WRAY           FAIR      70  52  52 SW14      29.76F
IMPERIAL       PTCLDY    71  51  49 SW12      29.72F
OGALLALA       CLEAR     66  52  61 W3        29.69F
NORTH PLATTE   CLEAR     74  56  53 S12G21    29.67F
MCCOOK         CLEAR     67  56  67 S12       29.70F
LEXINGTON      CLEAR     74  56  53 S16G22    29.68F
STAPLETON        N/A     71  57  61 CALM        N/A
GOTHENBURG       N/A     77  56  48 S12         N/A
CALLAWAY         N/A     72  62  71 S16         N/A
$$

...OBSERVATIONS IN CENTRAL LINCOLN COUNTY AREA...

CITY           SKY/WX    TMP DP  RH WIND       PRES   REMARKS
N.P. AIRPORT   CLEAR     74  56  53 S12G21    29.67F
N.P. DOWNTOWN    N/A     73  57  57 CALM        N/A
N.P. SOUTHEAST   N/A     72  55  55 S8G16       N/A
N.P. HILLCREST   N/A     72  56  56 S8          N/A
$$

...SOME OBSERVATIONS FROM AROUND THE REGION...

CITY           SKY/WX    TMP DP  RH WIND       PRES   REMARKS
DENVER         PTCLDY    71  37  28 SW13      29.91F
LIMON          CLEAR     50  40  68 CALM      29.94S
ASPEN          CLOUDY    53  37  54 SW9       30.20R
LARAMIE        CLEAR     58  36  43 W13       30.04S
CASPER         CLOUDY    56  50  80 CALM      29.94R
CHEYENNE       CLOUDY    69  36  29 W14       29.96R
SCOTTSBLUFF    PTCLDY    66  47  50 NW6       29.75R
GRAND ISLAND   CLOUDY    69  59  70 SE8       29.70S
OMAHA          CLOUDY    79  60  52 S15       29.66F
SIOUX FALLS    CLOUDY    69  63  81 N14G25    29.67R
PIERRE         CLOUDY    57  52  83 NE10      29.71F
RAPID CITY     CLOUDY    57  47  69 NW6       29.80S
BISMARCK       MOCLDY    60  44  55 NW7       29.81R
KANSAS CITY    MOCLDY    72  63  73 S9        29.82S
HILL CITY      CLEAR     66  60  81 SW7       29.75F
WICHITA        MOCLDY    68  64  87 S7        29.79R
DODGE CITY     CLOUDY    63  57  81 S6        29.80S
OKLAHOMA CITY  CLOUDY    66  61  84 S3        29.78S
DALLAS         MOCLDY    77  70  79 NE12      29.71F
AMARILLO       CLOUDY    63  58  83 S13       29.88F
$$




USA.gov is the U.S. government's official web portal to all federal, state and local government web resources and services.